Moline, IL

2:08 PM CDT on May 21, 2018 (GMT -0500)
Quad-City International

Weather History for KMLI - February, 2011

Change the Weather History Date:

Tuesday, February 15, 2011

  Actual Average Record
Temperature  
Mean Temperature 35 °F 27 °F  
Max Temperature 42 °F 36 °F 73 °F (1921)
Min Temperature 28 °F 18 °F -14 °F (1905)
Degree Days  
Heating Degree Days 30 38  
Month to date heating degree days 703 603  
Since 1 July heating degree days 4439 4337  
Cooling Degree Days 0 0  
Month to date cooling degree days 0 0  
Year to date cooling degree days 0 0  
Moisture  
Dew Point 31 °F    
Average Humidity 80    
Maximum Humidity 92    
Minimum Humidity 67    
Precipitation  
Precipitation T in 0.06 in 1.05 in (1954)
Month to date precipitation 0.76 0.73  
Year to date precipitation 1.66 2.22  
Snow  
Snow 0.00 in 0.30 in - ()
Month to date snowfall 17.3 4.1  
Since 1 July snowfall 43.2 24.0  
Snow Depth 3.00 in    
Sea Level Pressure  
Sea Level Pressure 30.13 in    
Wind  
Wind Speed 10 mph (SSE)    
Max Wind Speed 21 mph    
Max Gust Speed 30 mph    
Visibility 8 miles    
Events      
T = Trace of Precipitation, MM = Missing Value Source: NWS Daily Summary

Daily Weather History Graph

Daily Weather History Graph

Search for Another Location

Airport or City:

Astronomy

Feb. 15, 2011 Rise Set
Actual Time 6:57 AM CST 5:35 PM CST
Civil Twilight 6:29 AM CST 6:03 PM CST
Nautical Twilight 5:56 AM CST 6:36 PM CST
Astronomical Twilight 5:24 AM CST 7:08 PM CST
Moon 2:43 PM CST (2/15) 4:52 AM CST (2/15)
Length of Visible Light 11h 34m
Length of Day
10h 38m
Waxing Gibbous, 91% of the Moon is Illuminated
Feb 15
Waxing Gibbous
Feb 18
Full
Feb 24
Last Quarter
Mar 4
New
Mar 12
First Quarter

Hourly Weather History & Observations

Time (CST) Temp. Windchill Dew Point Humidity Pressure Visibility Wind Dir Wind Speed Gust Speed Precip Events Conditions
12:52 AM 28.0 °F 22.8 °F 26.1 °F 92% 30.29 in 6.0 mi ESE 4.6 mph - N/A   Clear
1:52 AM 30.0 °F - 27.0 °F 88% 30.30 in 7.0 mi Calm Calm - N/A   Clear
2:52 AM 28.9 °F - 26.1 °F 89% 30.29 in 6.0 mi Calm Calm - N/A   Clear
3:52 AM 32.0 °F 27.5 °F 27.0 °F 82% 30.27 in 6.0 mi SSE 4.6 mph - N/A   Haze
4:52 AM 30.9 °F 25.2 °F 28.0 °F 89% 30.27 in 6.0 mi SSE 5.8 mph - N/A   Clear
5:52 AM 32.0 °F 24.2 °F 28.0 °F 85% 30.27 in 7.0 mi SE 9.2 mph - N/A   Clear
6:52 AM 33.1 °F 25.5 °F 28.9 °F 85% 30.26 in 7.0 mi SSE 9.2 mph - N/A   Clear
7:52 AM 34.0 °F 25.0 °F 30.0 °F 85% 30.25 in 5.0 mi SSE 12.7 mph - N/A   Clear
8:52 AM 35.1 °F 26.9 °F 30.0 °F 82% 30.23 in 7.0 mi SSE 11.5 mph 20.7 mph N/A   Clear
9:52 AM 37.0 °F 27.7 °F 30.0 °F 76% 30.21 in 9.0 mi SSE 16.1 mph 23.0 mph N/A   Clear
10:52 AM 37.9 °F 29.2 °F 30.9 °F 76% 30.19 in 10.0 mi SSE 15.0 mph 21.9 mph N/A   Clear
11:52 AM 39.0 °F 29.9 °F 30.9 °F 73% 30.14 in 10.0 mi SSE 17.3 mph 29.9 mph N/A   Clear
12:52 PM 39.9 °F 32.1 °F 32.0 °F 73% 30.12 in 10.0 mi SSE 13.8 mph - N/A   Partly Cloudy
1:52 PM 42.1 °F 35.7 °F 32.0 °F 67% 30.09 in 10.0 mi SSE 11.5 mph - N/A   Clear
2:52 PM 42.1 °F 35.2 °F 33.1 °F 70% 30.05 in 10.0 mi SSE 12.7 mph - N/A   Clear
3:52 PM 41.0 °F 35.8 °F 32.0 °F 70% 30.04 in 10.0 mi SE 8.1 mph - N/A   Mostly Cloudy
4:52 PM 39.9 °F 35.1 °F 30.9 °F 70% 30.03 in 10.0 mi SSE 6.9 mph - N/A   Overcast
5:52 PM 39.9 °F 33.9 °F 32.0 °F 73% 30.04 in 10.0 mi South 9.2 mph - 0.00 in   Overcast
6:52 PM 39.9 °F 32.1 °F 33.1 °F 77% 30.00 in 9.0 mi South 13.8 mph - N/A   Overcast
7:19 PM 39.2 °F 30.5 °F 33.8 °F 81% 29.98 in 9.0 mi South 16.1 mph - N/A   Mostly Cloudy
7:52 PM 39.9 °F 31.1 °F 34.0 °F 79% 29.99 in 9.0 mi South 17.3 mph 21.9 mph N/A   Overcast
8:52 PM 41.0 °F 34.3 °F 34.0 °F 76% 29.99 in 9.0 mi South 11.5 mph - N/A   Overcast
9:52 PM 41.0 °F 33.9 °F 34.0 °F 76% 29.98 in 10.0 mi South 12.7 mph - N/A   Overcast
10:52 PM 41.0 °F 38.0 °F 33.1 °F 73% 29.98 in 10.0 mi SSW 4.6 mph - N/A   Overcast
11:52 PM 41.0 °F 36.4 °F 33.1 °F 73% 29.97 in 10.0 mi SW 6.9 mph - N/A   Scattered Clouds